| time (UTC) | temp F | wind direction | speed knots | gust knots | rain 1hr in | rain 24hr in | rain mn in | humidity % | barometer mb |
| 20260505091038 | 54 | 195 | 0.9 | 7.8 | 0.00 | 0.00 | 0.00 | 66 | 1016.6 |
| 20260505090539 | 55 | 217 | 0.9 | 6.1 | 0.00 | 0.00 | 0.00 | 66 | 1016.6 |
| 20260505090039 | 55 | 0 | 0.0 | 4.3 | 0.00 | 0.00 | 0.00 | 65 | 1016.5 |
| 20260505085539 | 55 | 0 | 0.0 | 0.0 | 0.00 | 0.00 | 0.00 | 65 | 1016.4 |
| 20260505085039 | 56 | 0 | 0.0 | 2.6 | 0.00 | 0.00 | 0.00 | 64 | 1016.4 |
| 20260505084539 | 56 | 0 | 0.0 | 6.1 | 0.00 | 0.00 | 0.00 | 63 | 1016.4 |
| 20260505084039 | 56 | 0 | 0.0 | 9.6 | 0.00 | 0.00 | 0.00 | 63 | 1016.4 |
| 20260505083540 | 56 | 202 | 2.6 | 9.6 | 0.00 | 0.00 | 0.00 | 63 | 1016.2 |
| 20260505083038 | 56 | 200 | 2.6 | 12.2 | 0.00 | 0.00 | 0.00 | 62 | 1016.2 |
| 20260505082539 | 56 | 0 | 0.0 | 12.2 | 0.00 | 0.00 | 0.00 | 62 | 1016.2 |
| 20260505082038 | 56 | 238 | 0.9 | 12.2 | 0.00 | 0.00 | 0.00 | 62 | 1016.2 |
| 20260505081539 | 56 | 207 | 2.6 | 12.2 | 0.00 | 0.00 | 0.00 | 62 | 1016.2 |
| 20260505081038 | 56 | 200 | 2.6 | 12.2 | 0.00 | 0.00 | 0.00 | 62 | 1016.1 |
| 20260505080539 | 56 | 200 | 3.5 | 13.0 | 0.00 | 0.00 | 0.00 | 62 | 1016.0 |
| 20260505080039 | 56 | 199 | 3.5 | 13.0 | 0.00 | 0.00 | 0.00 | 62 | 1016.1 |
| 20260505075539 | 56 | 200 | 3.5 | 9.6 | 0.00 | 0.00 | 0.00 | 62 | 1016.0 |
| 20260505075038 | 56 | 201 | 1.7 | 10.4 | 0.00 | 0.00 | 0.00 | 62 | 1016.0 |
| 20260505074539 | 56 | 196 | 4.3 | 10.4 | 0.00 | 0.00 | 0.00 | 61 | 1015.9 |
| 20260505074039 | 57 | 195 | 3.5 | 12.2 | 0.00 | 0.00 | 0.00 | 61 | 1015.9 |
| 20260505073541 | 57 | 209 | 2.6 | 12.2 | 0.00 | 0.00 | 0.00 | 61 | 1015.9 |
| 20260505073038 | 56 | 198 | 5.2 | 9.6 | 0.00 | 0.00 | 0.00 | 61 | 1015.9 |
| 20260505072539 | 57 | 195 | 4.3 | 8.7 | 0.00 | 0.00 | 0.00 | 61 | 1016.0 |
| 20260505072038 | 57 | 195 | 3.5 | 8.7 | 0.00 | 0.00 | 0.00 | 59 | 1015.9 |
| 20260505071400 | 57 | 192 | 1.7 | 8.7 | 0.00 | 0.00 | 0.00 | 59 | 1015.9 |
| 20260505070447 | 58 | 203 | 3.5 | 12.2 | 0.00 | 0.00 | 0.00 | 58 | 1015.9 |
| 20260505065947 | 58 | 197 | 3.5 | 14.8 | 0.00 | 0.00 | 0.00 | 58 | 1015.8 |
| 20260505065447 | 58 | 200 | 5.2 | 14.8 | 0.00 | 0.00 | 0.00 | 58 | 1015.7 |
| 20260505064947 | 58 | 196 | 4.3 | 13.9 | 0.00 | 0.00 | 0.00 | 58 | 1015.7 |
| 20260505064447 | 58 | 203 | 4.3 | 13.9 | 0.00 | 0.00 | 0.00 | 57 | 1015.8 |
| 20260505063947 | 58 | 196 | 2.6 | 16.5 | 0.00 | 0.00 | 0.00 | 58 | 1015.9 |
| 20260505063447 | 58 | 207 | 4.3 | 16.5 | 0.00 | 0.00 | 0.00 | 57 | 1016.1 |
| 20260505062947 | 58 | 196 | 5.2 | 13.0 | 0.00 | 0.00 | 0.00 | 57 | 1015.8 |
| 20260505062447 | 58 | 195 | 3.5 | 11.3 | 0.00 | 0.00 | 0.00 | 58 | 1015.8 |
| 20260505061947 | 58 | 191 | 4.3 | 10.4 | 0.00 | 0.00 | 0.00 | 57 | 1016.0 |
| 20260505061447 | 58 | 196 | 4.3 | 10.4 | 0.00 | 0.00 | 0.00 | 57 | 1016.0 |
| 20260505060947 | 58 | 192 | 3.5 | 11.3 | 0.00 | 0.00 | 0.00 | 57 | 1015.9 |
| 20260505060447 | 59 | 197 | 4.3 | 11.3 | 0.00 | 0.00 | 0.00 | 57 | 1015.9 |
| 20260505055947 | 59 | 195 | 4.3 | 12.2 | 0.00 | 0.00 | 0.00 | 56 | 1015.9 |
| 20260505055447 | 59 | 201 | 4.3 | 17.4 | 0.00 | 0.00 | 0.00 | 56 | 1016.0 |
| 20260505054947 | 59 | 199 | 7.8 | 17.4 | 0.00 | 0.00 | 0.00 | 56 | 1015.9 |
| 20260505054447 | 59 | 201 | 6.1 | 15.6 | 0.00 | 0.00 | 0.00 | 55 | 1016.0 |
| 20260505053947 | 59 | 196 | 6.1 | 11.3 | 0.00 | 0.00 | 0.00 | 55 | 1015.9 |
| 20260505053528 | 59 | 198 | 4.3 | 13.0 | 0.00 | 0.00 | 0.00 | 55 | 1016.0 |
| 20260505053447 | 59 | 198 | 4.3 | 13.0 | 0.00 | 0.00 | 0.00 | 55 | 1016.0 |
| 20260505052947 | 59 | 200 | 4.3 | 15.6 | 0.00 | 0.00 | 0.00 | 55 | 1016.0 |
| 20260505052447 | 60 | 198 | 4.3 | 15.6 | 0.00 | 0.00 | 0.00 | 54 | 1016.1 |
| 20260505051947 | 60 | 192 | 5.2 | 13.9 | 0.00 | 0.00 | 0.00 | 54 | 1015.9 |
| 20260505051447 | 60 | 196 | 4.3 | 13.0 | 0.00 | 0.00 | 0.00 | 54 | 1015.9 |
| 20260505050947 | 60 | 194 | 5.2 | 13.9 | 0.00 | 0.00 | 0.00 | 53 | 1015.9 |
| 20260505050447 | 61 | 198 | 5.2 | 13.9 | 0.00 | 0.00 | 0.00 | 53 | 1015.8 |
| 20260505041447 | 62 | 199 | 6.1 | 15.6 | 0.00 | 0.00 | 0.00 | 49 | 1015.8 |
| 20260505040436 | 62 | 198 | 4.3 | 13.0 | 0.00 | 0.00 | 0.00 | 49 | 1016.0 |
| 20260505035935 | 62 | 205 | 6.1 | 13.0 | 0.00 | 0.00 | 0.00 | 49 | 1015.8 |
| 20260505035435 | 62 | 201 | 5.2 | 13.0 | 0.00 | 0.00 | 0.00 | 49 | 1015.9 |
| 20260505034935 | 62 | 193 | 5.2 | 12.2 | 0.00 | 0.00 | 0.00 | 49 | 1016.0 |
| 20260505034435 | 62 | 196 | 6.1 | 12.2 | 0.00 | 0.00 | 0.00 | 48 | 1016.1 |
| 20260505033937 | 62 | 195 | 4.3 | 11.3 | 0.00 | 0.00 | 0.00 | 49 | 1016.1 |
| 20260505033435 | 62 | 199 | 6.1 | 13.9 | 0.00 | 0.00 | 0.00 | 49 | 1016.1 |
| 20260505032935 | 62 | 193 | 5.2 | 13.9 | 0.00 | 0.00 | 0.00 | 49 | 1016.2 |
| 20260505032435 | 62 | 196 | 4.3 | 13.0 | 0.00 | 0.00 | 0.00 | 48 | 1016.2 |
| 20260505031935 | 63 | 198 | 5.2 | 13.0 | 0.00 | 0.00 | 0.00 | 47 | 1016.3 |
| 20260505031435 | 63 | 193 | 4.3 | 12.2 | 0.00 | 0.00 | 0.00 | 47 | 1016.4 |
| 20260505030935 | 63 | 196 | 5.2 | 11.3 | 0.00 | 0.00 | 0.00 | 46 | 1016.4 |
| 20260505030435 | 64 | 198 | 4.3 | 13.0 | 0.00 | 0.00 | 0.00 | 45 | 1016.3 |
| 20260505025937 | 64 | 197 | 3.5 | 13.0 | 0.00 | 0.00 | 0.00 | 45 | 1016.4 |
| 20260505025435 | 64 | 199 | 4.3 | 13.0 | 0.00 | 0.00 | 0.00 | 44 | 1016.4 |
| 20260505024935 | 65 | 205 | 4.3 | 13.0 | 0.00 | 0.00 | 0.00 | 43 | 1016.4 |
| 20260505024409 | 65 | 200 | 4.3 | 13.9 | 0.00 | 0.00 | 0.00 | 43 | 1016.4 |
| 20260505023909 | 65 | 204 | 7.0 | 13.9 | 0.00 | 0.00 | 0.00 | 42 | 1016.3 |
| 20260505023409 | 65 | 197 | 4.3 | 12.2 | 0.00 | 0.00 | 0.00 | 42 | 1016.3 |
| 20260505022909 | 65 | 198 | 5.2 | 12.2 | 0.00 | 0.00 | 0.00 | 42 | 1016.3 |
| 20260505022409 | 65 | 197 | 4.3 | 11.3 | 0.00 | 0.00 | 0.00 | 43 | 1016.4 |
| 20260505021909 | 65 | 197 | 5.2 | 11.3 | 0.00 | 0.00 | 0.00 | 43 | 1016.4 |
| 20260505021409 | 65 | 198 | 4.3 | 11.3 | 0.00 | 0.00 | 0.00 | 43 | 1016.5 |
| 20260505020909 | 65 | 202 | 4.3 | 14.8 | 0.00 | 0.00 | 0.00 | 43 | 1016.5 |
| 20260505020409 | 65 | 201 | 5.2 | 14.8 | 0.00 | 0.00 | 0.00 | 43 | 1015.5 |
| 20260505015909 | 65 | 193 | 5.2 | 11.3 | 0.00 | 0.00 | 0.00 | 44 | 1015.5 |
| 20260505015409 | 65 | 195 | 3.5 | 11.3 | 0.00 | 0.00 | 0.00 | 44 | 1015.5 |
| 20260505014439 | 65 | 195 | 5.2 | 12.2 | 0.00 | 0.00 | 0.00 | 44 | 1015.5 |
| 20260505013938 | 65 | 200 | 4.3 | 12.2 | 0.00 | 0.00 | 0.00 | 45 | 1015.5 |
| 20260505013438 | 65 | 194 | 3.5 | 17.4 | 0.00 | 0.00 | 0.00 | 45 | 1015.4 |
| 20260505012938 | 65 | 198 | 5.2 | 17.4 | 0.00 | 0.00 | 0.00 | 44 | 1015.4 |
| 20260505012438 | 65 | 199 | 6.1 | 11.3 | 0.00 | 0.00 | 0.00 | 44 | 1015.3 |
| 20260505011938 | 65 | 195 | 4.3 | 10.4 | 0.00 | 0.00 | 0.00 | 44 | 1015.2 |
| 20260505011439 | 65 | 205 | 5.2 | 10.4 | 0.00 | 0.00 | 0.00 | 45 | 1015.3 |
| 20260505010938 | 65 | 198 | 4.3 | 11.3 | 0.00 | 0.00 | 0.00 | 46 | 1015.4 |
| 20260505010438 | 66 | 199 | 4.3 | 11.3 | 0.00 | 0.00 | 0.00 | 45 | 1015.2 |
| 20260505005938 | 66 | 195 | 5.2 | 11.3 | 0.00 | 0.00 | 0.00 | 44 | 1015.1 |
| 20260505005209 | 66 | 201 | 4.3 | 11.3 | 0.00 | 0.00 | 0.00 | 45 | 1015.0 |
| 20260505004709 | 66 | 196 | 3.5 | 8.7 | 0.00 | 0.00 | 0.00 | 45 | 1015.0 |
| 20260505004209 | 66 | 197 | 4.3 | 9.6 | 0.00 | 0.00 | 0.00 | 45 | 1015.0 |
| 20260505003709 | 66 | 199 | 4.3 | 9.6 | 0.00 | 0.00 | 0.00 | 45 | 1015.0 |
| 20260505003209 | 66 | 196 | 3.5 | 8.7 | 0.00 | 0.00 | 0.00 | 45 | 1015.0 |
| 20260505002709 | 66 | 201 | 3.5 | 10.4 | 0.00 | 0.00 | 0.00 | 45 | 1015.0 |
| 20260505002209 | 66 | 207 | 3.5 | 10.4 | 0.00 | 0.00 | 0.00 | 46 | 1015.0 |
| 20260505001709 | 66 | 201 | 3.5 | 7.8 | 0.00 | 0.00 | 0.00 | 46 | 1015.0 |
| 20260505001209 | 66 | 195 | 3.5 | 7.8 | 0.00 | 0.00 | 0.00 | 46 | 1014.9 |
| 20260505000709 | 66 | 196 | 3.5 | 9.6 | 0.00 | 0.00 | 0.00 | 46 | 1015.0 |
| 20260505000211 | 66 | 198 | 3.5 | 9.6 | 0.00 | 0.00 | 0.00 | 46 | 1015.0 |
| 20260504235709 | 67 | 197 | 4.3 | 8.7 | 0.00 | 0.00 | 0.00 | 46 | 1015.0 |
| 20260504235209 | 67 | 196 | 4.3 | 9.6 | 0.00 | 0.00 | 0.00 | 46 | 1014.9 |
| 20260504234710 | 67 | 194 | 4.3 | 10.4 | 0.00 | 0.00 | 0.00 | 46 | 1014.9 |
| 20260504234209 | 67 | 205 | 3.5 | 10.4 | 0.00 | 0.00 | 0.00 | 47 | 1014.8 |
| 20260504233709 | 67 | 201 | 4.3 | 9.6 | 0.00 | 0.00 | 0.00 | 47 | 1014.8 |
| 20260504233056 | 67 | 198 | 4.3 | 10.4 | 0.00 | 0.00 | 0.00 | 47 | 1014.8 |
| 20260504232558 | 67 | 195 | 5.2 | 10.4 | 0.00 | 0.00 | 0.00 | 47 | 1014.8 |
| 20260504231555 | 67 | 192 | 4.3 | 12.2 | 0.00 | 0.00 | 0.00 | 48 | 1014.8 |
| 20260504231055 | 67 | 196 | 6.1 | 12.2 | 0.00 | 0.00 | 0.00 | 48 | 1014.7 |
| 20260504230555 | 67 | 187 | 3.5 | 11.3 | 0.00 | 0.00 | 0.00 | 48 | 1014.7 |
| 20260504230055 | 67 | 186 | 2.6 | 11.3 | 0.00 | 0.00 | 0.00 | 47 | 1014.7 |
| 20260504225555 | 68 | 188 | 5.2 | 11.3 | 0.00 | 0.00 | 0.00 | 47 | 1014.6 |
| 20260504225055 | 68 | 200 | 4.3 | 11.3 | 0.00 | 0.00 | 0.00 | 47 | 1014.7 |
| 20260504224556 | 68 | 194 | 5.2 | 13.0 | 0.00 | 0.00 | 0.00 | 47 | 1014.7 |
| 20260504224055 | 68 | 201 | 5.2 | 13.0 | 0.00 | 0.00 | 0.00 | 47 | 1014.7 |
| 20260504223555 | 68 | 196 | 4.3 | 13.0 | 0.00 | 0.00 | 0.00 | 47 | 1014.6 |
| 20260504223055 | 68 | 179 | 3.5 | 13.0 | 0.00 | 0.00 | 0.00 | 48 | 1014.6 |
| 20260504222555 | 68 | 185 | 1.7 | 11.3 | 0.00 | 0.00 | 0.00 | 48 | 1014.6 |
| 20260504222056 | 68 | 192 | 4.3 | 8.7 | 0.00 | 0.00 | 0.00 | 47 | 1014.7 |
| 20260504221555 | 69 | 189 | 2.6 | 8.7 | 0.00 | 0.00 | 0.00 | 48 | 1014.8 |
| 20260504221055 | 69 | 199 | 2.6 | 8.7 | 0.00 | 0.00 | 0.00 | 47 | 1014.7 |
| 20260504220555 | 69 | 202 | 1.7 | 13.0 | 0.00 | 0.00 | 0.00 | 48 | 1014.8 |
| 20260504220055 | 69 | 201 | 3.5 | 13.0 | 0.00 | 0.00 | 0.00 | 47 | 1014.7 |
| 20260504215555 | 69 | 191 | 2.6 | 8.7 | 0.00 | 0.00 | 0.00 | 48 | 1014.7 |
| 20260504215055 | 69 | 189 | 2.6 | 11.3 | 0.00 | 0.00 | 0.00 | 47 | 1014.7 |
| 20260504214555 | 69 | 198 | 2.6 | 11.3 | 0.00 | 0.00 | 0.00 | 47 | 1014.7 |
| 20260504214055 | 70 | 193 | 3.5 | 8.7 | 0.00 | 0.00 | 0.00 | 47 | 1014.6 |
| 20260504213555 | 70 | 193 | 2.6 | 8.7 | 0.00 | 0.00 | 0.00 | 47 | 1014.8 |
| 20260504213055 | 70 | 198 | 0.9 | 8.7 | 0.00 | 0.00 | 0.00 | 47 | 1014.7 |
| 20260504212555 | 70 | 185 | 1.7 | 7.8 | 0.00 | 0.00 | 0.00 | 48 | 1014.7 |
| 20260504212055 | 70 | 187 | 2.6 | 8.7 | 0.00 | 0.00 | 0.00 | 47 | 1014.8 |
| 20260504211555 | 70 | 182 | 1.7 | 9.6 | 0.00 | 0.00 | 0.00 | 45 | 1014.8 |
| 20260504211056 | 70 | 178 | 4.3 | 9.6 | 0.00 | 0.00 | 0.00 | 46 | 1014.6 |
| 20260504210555 | 71 | 192 | 4.3 | 11.3 | 0.00 | 0.00 | 0.00 | 45 | 1014.7 |
| 20260504210055 | 71 | 201 | 5.2 | 11.3 | 0.00 | 0.00 | 0.00 | 45 | 1014.8 |
| 20260504205555 | 71 | 198 | 1.7 | 9.6 | 0.00 | 0.00 | 0.00 | 46 | 1014.8 |
| 20260504205055 | 71 | 182 | 2.6 | 7.0 | 0.00 | 0.00 | 0.00 | 45 | 1014.9 |
| 20260504204555 | 71 | 193 | 1.7 | 10.4 | 0.00 | 0.00 | 0.00 | 46 | 1014.9 |
| 20260504204055 | 71 | 193 | 4.3 | 10.4 | 0.00 | 0.00 | 0.00 | 44 | 1014.9 |
| 20260504203555 | 72 | 192 | 2.6 | 6.1 | 0.00 | 0.00 | 0.00 | 44 | 1015.0 |
| 20260504203055 | 72 | 189 | 1.7 | 5.2 | 0.00 | 0.00 | 0.00 | 45 | 1015.1 |
| 20260504202555 | 72 | 240 | 0.9 | 6.1 | 0.00 | 0.00 | 0.00 | 45 | 1015.1 |
| 20260504202055 | 72 | 194 | 0.9 | 6.1 | 0.00 | 0.00 | 0.00 | 46 | 1015.0 |
| 20260504201555 | 72 | 185 | 0.9 | 7.0 | 0.00 | 0.00 | 0.00 | 44 | 1015.1 |
| 20260504201055 | 73 | 189 | 2.6 | 7.0 | 0.00 | 0.00 | 0.00 | 44 | 1015.1 |
| 20260504200555 | 73 | 166 | 1.7 | 7.0 | 0.00 | 0.00 | 0.00 | 46 | 1015.2 |
| 20260504200055 | 73 | 199 | 0.9 | 7.0 | 0.00 | 0.00 | 0.00 | 45 | 1015.3 |
| 20260504195555 | 72 | 192 | 0.9 | 7.0 | 0.00 | 0.00 | 0.00 | 44 | 1015.4 |
| 20260504195055 | 72 | 211 | 0.9 | 8.7 | 0.00 | 0.00 | 0.00 | 45 | 1015.4 |
| 20260504194555 | 72 | 191 | 2.6 | 8.7 | 0.00 | 0.00 | 0.00 | 44 | 1015.5 |
| 20260504194058 | 73 | 190 | 3.5 | 7.0 | 0.00 | 0.00 | 0.00 | 44 | 1015.5 |
| 20260504193555 | 73 | 217 | 0.9 | 7.8 | 0.00 | 0.00 | 0.00 | 46 | 1015.7 |
| 20260504193057 | 73 | 197 | 1.7 | 7.8 | 0.00 | 0.00 | 0.00 | 44 | 1015.9 |
| 20260504192556 | 73 | 0 | 0.0 | 6.1 | 0.00 | 0.00 | 0.00 | 44 | 1016.0 |
| 20260504192057 | 73 | 0 | 0.0 | 6.1 | 0.00 | 0.00 | 0.00 | 45 | 1016.1 |
| 20260504191556 | 72 | 0 | 0.0 | 7.0 | 0.00 | 0.00 | 0.00 | 47 | 1016.1 |
| 20260504191057 | 72 | 205 | 1.7 | 7.0 | 0.00 | 0.00 | 0.00 | 44 | 1016.1 |
| 20260504190555 | 73 | 199 | 0.9 | 7.0 | 0.00 | 0.00 | 0.00 | 43 | 1016.2 |
| 20260504190055 | 73 | 0 | 0.0 | 6.1 | 0.00 | 0.00 | 0.00 | 46 | 1016.4 |
| 20260504185557 | 72 | 248 | 1.7 | 6.1 | 0.00 | 0.00 | 0.00 | 45 | 1016.4 |
| 20260504185055 | 73 | 0 | 0.0 | 3.5 | 0.00 | 0.00 | 0.00 | 44 | 1016.6 |
| 20260504184555 | 72 | 0 | 0.0 | 4.3 | 0.00 | 0.00 | 0.00 | 44 | 1016.5 |
| 20260504184056 | 72 | 271 | 0.9 | 4.3 | 0.00 | 0.00 | 0.00 | 48 | 1016.6 |
| 20260504183558 | 71 | 0 | 0.0 | 3.5 | 0.00 | 0.00 | 0.00 | 45 | 1016.6 |
| 20260504183055 | 71 | 0 | 0.0 | 5.2 | 0.00 | 0.00 | 0.00 | 46 | 1016.8 |
| 20260504182557 | 71 | 0 | 0.0 | 5.2 | 0.00 | 0.00 | 0.00 | 47 | 1016.8 |
| 20260504182056 | 71 | 202 | 0.9 | 5.2 | 0.00 | 0.00 | 0.00 | 46 | 1016.7 |
| 20260504181558 | 70 | 181 | 0.9 | 6.1 | 0.00 | 0.00 | 0.00 | 47 | 1016.8 |
| 20260504181055 | 70 | 187 | 1.7 | 6.1 | 0.00 | 0.00 | 0.00 | 45 | 1016.8 |
| 20260504180555 | 70 | 0 | 0.0 | 7.8 | 0.00 | 0.00 | 0.00 | 48 | 1016.8 |
| 20260504180055 | 70 | 198 | 4.3 | 7.8 | 0.00 | 0.00 | 0.00 | 45 | 1016.9 |
| 20260504175556 | 71 | 293 | 0.9 | 3.5 | 0.00 | 0.00 | 0.00 | 46 | 1016.9 |
| 20260504175055 | 70 | 0 | 0.0 | 3.5 | 0.00 | 0.00 | 0.00 | 47 | 1017.1 |
| 20260504174557 | 69 | 0 | 0.0 | 3.5 | 0.00 | 0.00 | 0.00 | 48 | 1017.1 |
| 20260504174055 | 69 | 0 | 0.0 | 5.2 | 0.00 | 0.00 | 0.00 | 47 | 1017.0 |
| 20260504173555 | 69 | 0 | 0.0 | 7.8 | 0.00 | 0.00 | 0.00 | 47 | 1017.1 |
| 20260504173058 | 69 | 305 | 0.9 | 7.8 | 0.00 | 0.00 | 0.00 | 46 | 1017.2 |
| 20260504172555 | 70 | 0 | 0.0 | 2.6 | 0.00 | 0.00 | 0.00 | 45 | 1017.2 |
| 20260504172056 | 70 | 0 | 0.0 | 3.5 | 0.00 | 0.00 | 0.00 | 47 | 1017.3 |
| 20260504171559 | 70 | 0 | 0.0 | 3.5 | 0.00 | 0.00 | 0.00 | 46 | 1017.4 |
| 20260504171037 | 69 | 0 | 0.0 | 5.2 | 0.00 | 0.00 | 0.00 | 48 | 1017.5 |
| 20260504170536 | 68 | 0 | 0.0 | 5.2 | 0.00 | 0.00 | 0.00 | 46 | 1017.3 |
| 20260504151028 | 63 | 312 | 1.7 | 7.8 | 0.00 | 0.00 | 0.00 | 47 | 1019.1 |
| 20260504150528 | 63 | 0 | 0.0 | 3.5 | 0.00 | 0.00 | 0.00 | 46 | 1019.2 |
| 20260504140839 | 61 | 0 | 0.0 | 4.3 | 0.00 | 0.00 | 0.00 | 47 | 1017.8 |
| 20260504140339 | 62 | 0 | 0.0 | 4.3 | 0.00 | 0.00 | 0.00 | 47 | 1017.8 |
| 20260504130339 | 60 | 0 | 0.0 | 0.0 | 0.00 | 0.00 | 0.00 | 51 | 1017.9 |
| 20260504110339 | 53 | 319 | 0.9 | 11.3 | 0.00 | 0.00 | 0.00 | 49 | 1017.8 |
| 20260504100614 | 53 | 0 | 0.0 | 9.6 | 0.00 | 0.00 | 0.00 | 47 | 1017.9 |
| 20260504100418 | 53 | 0 | 0.0 | 7.0 | 0.00 | 0.00 | 0.00 | 47 | 1017.8 |
| 20260504100114 | 53 | 0 | 0.0 | 7.0 | 0.00 | 0.00 | 0.00 | 47 | 1017.8 |